[[{"header":{"parameterUnit":"m.s-1","parameterCategory":1,"la1":30.2991,"la2":30.254,"lo1":-89.0895,"lo2":-89.0444,"dy":0.0017,"dx":0.0017,"nx":28,"ny":28,"refTime":"2024-04-06T21:00:00:Z","depth":0,"parameterNumber":2,"parameterNumberName":"U-component_of_WINDS"},"data":[0,0,0,0,0,0,0,0,0,0,0,0,0,0,0,0,0,0,0,0,0,0,0,0,0,0,0,0,0,0,0,0,0,0,0,0,0,0,0,0,0,0,0,0,0,0,0,0,0,0,0,0,0,0,0,0,0,0,-3.5523,-3.5524,0,-3.5632,-3.5633,-3.5634,-3.5607,-3.5605,-3.5602,-3.56,-3.5711,-3.5716,-3.5721,0,0,0,0,0,0,0,0,0,0,0,0,0,-3.529,-3.5294,-3.5522,-3.5524,-3.5525,-3.5631,-3.5633,-3.5634,-3.5607,-3.5605,-3.5602,-3.5599,-3.571,-3.5716,-3.5722,0,0,0,0,0,0,0,0,0,0,0,0,0,-3.5394,-3.5296,-3.5522,-3.5524,-3.5526,-3.5631,-3.5633,-3.5635,-3.5608,-3.5604,-3.5601,-3.5598,-3.5708,-3.5715,-3.5722,-3.5832,0,0,-3.5745,-3.5748,0,0,0,0,0,0,0,0,-3.5388,-3.5403,-3.5523,-3.5524,-3.5526,-3.5602,-3.5592,-3.5701,-3.5608,-3.5577,-3.56,-3.5597,-3.5678,-3.5687,-3.5715,-3.5837,-3.5842,-3.5746,-3.575,-3.5753,-3.5756,0,0,0,0,0,0,0,-3.5381,-3.5398,-3.5566,-3.5524,-3.5527,-3.552,-3.5531,-3.5612,-3.5644,-3.5579,-3.5577,-3.5591,-3.5678,-3.5708,-3.5717,-3.5844,-3.5746,-3.5752,-3.5757,-3.576,-3.6061,-3.6064,0,0,0,0,0,0,-3.5373,-3.5392,-3.5562,-3.5569,-3.5448,-3.5527,-3.5539,-3.5581,-3.5643,-3.5649,-3.5593,-3.5589,-3.5697,-3.5709,-3.5721,-3.5852,-3.5753,-3.576,-3.5765,-3.6057,-3.6061,-3.6065,0,0,0,0,0,0,-3.5368,-3.5388,-3.5558,-3.548,-3.5501,-3.5534,-3.5581,-3.5585,-3.5615,-3.5654,-3.5659,-3.5618,-3.5695,-3.5711,-3.5805,-3.5855,-3.5764,-3.577,-3.6053,-3.6058,-3.6063,-3.6116,0,0,0,0,0,0,-3.5361,-3.5386,-3.5429,-3.5481,-3.5505,-3.564,-3.5584,-3.5589,-3.5628,-3.5623,-3.5678,-3.5684,-3.5693,-3.5794,-3.5812,-3.5864,-3.5776,-3.6048,-3.6055,-3.6062,-3.6109,-3.6122,-3.6133,0,0,0,0,0,-3.5353,-3.5439,-3.5431,-3.5451,-3.5559,-3.5643,-3.5656,-3.5665,-3.5632,-3.5674,-3.5699,-3.5682,-3.5848,-3.5803,-3.5824,-3.5879,-3.6045,-3.6053,-3.6061,-3.6104,-3.612,-3.6133,0,0,0,0,0,0,-3.5391,-3.5446,-3.5437,-3.5543,-3.5589,-3.5638,-3.5691,-3.5682,-3.5737,-3.5731,-3.574,-3.5752,-3.5848,-3.5873,-3.5823,-3.5988,-3.5941,-3.5954,-3.5967,-3.5982,-3.5994,-3.5984,-3.5782,0,0,0,0,0,-3.5412,-3.5476,-3.552,-3.5609,-3.5633,-3.5658,-3.5695,-3.5698,-3.5746,-3.5764,-3.5796,-3.5842,-3.5905,-3.5945,-3.6005,-3.6114,-3.6125,-3.6162,-3.6174,-3.6183,-3.6193,-3.6251,-3.6267,-3.6091,-3.6091,-3.6091,0,0,-3.5455,-3.5493,-3.5533,-3.5618,-3.5653,-3.5718,-3.5674,-3.5746,-3.5794,-3.5775,-3.5865,-3.5891,-3.5943,-3.6044,-3.6091,-3.6068,-3.6244,-3.6193,-3.6201,-3.6205,-3.6261,-3.6277,-3.6292,-3.6097,-3.6096,-3.6095,0,0,-3.5567,-3.5603,-3.568,-3.5717,-3.5771,-3.5788,-3.5807,-3.5858,-3.5874,-3.5965,-3.5952,-3.6009,-3.6117,-3.6154,-3.6187,-3.6314,-3.63,-3.6333,-3.6393,-3.645,-3.6464,-3.6476,-3.6519,-3.6534,-3.6344,-3.6344,-3.6344,0,-3.5614,-3.5712,-3.5721,-3.5793,-3.583,-3.5818,-3.5895,-3.593,-3.6002,-3.6027,-3.6002,-3.6136,-3.617,-3.6279,-3.631,-3.6339,-3.6359,-3.6325,-3.6461,-3.6473,-3.6485,-3.6526,-3.6542,-3.6347,-3.6347,-3.6346,-3.6346,0,-3.5765,-3.5834,-3.589,-3.5958,-3.6002,-3.6077,-3.6097,-3.6141,-3.6141,-3.616,-3.6252,-3.6293,-3.636,-3.6387,-3.6388,-3.6497,-3.6481,-3.6459,-3.6411,-3.6505,-3.6543,-3.656,-3.6352,-3.6351,-3.635,-3.6349,0,0,-3.5902,-3.5976,-3.5996,-3.6026,-3.6085,-3.6138,-3.6213,-3.6278,-3.6314,-3.6365,-3.6426,-3.6517,-3.6497,-3.6534,-3.654,-3.659,-3.6685,-3.6561,-3.6562,-3.658,-3.6805,-3.6819,-3.6837,-3.6677,-3.668,-3.6683,-3.6799,0,-3.6017,-3.6147,-3.6158,-3.6275,-3.6337,-3.6326,-3.6391,-3.6434,-3.6454,-3.651,-3.6533,-3.6597,-3.6566,-3.6588,-3.6638,-3.6663,-3.6729,-3.6655,-3.6733,-3.6735,-3.6717,-3.6858,-3.6873,-3.6981,-3.6815,-3.6817,-3.6819,0,-3.6168,-3.6222,-3.6344,-3.6394,-3.6421,-3.6479,-3.6539,-3.6593,-3.6642,-3.6653,-3.6696,-3.6694,-3.677,-3.6723,-3.6826,-3.6775,-3.6808,-3.6826,-3.683,-3.6835,-3.6781,-3.6864,-3.7016,-3.7031,-3.6844,-3.6842,-3.684,0,-3.6252,-3.6356,-3.6442,-3.6469,-3.653,-3.657,-3.6598,-3.6644,-3.6682,-3.6736,-3.6761,-3.6823,-3.6856,-3.6904,-3.6919,-3.6883,-3.7021,-3.6975,-3.7031,-3.7031,-3.7058,-3.7056,-3.7215,-3.7085,-3.7084,-3.7084,-3.7084,0,-3.6377,-3.6452,-3.648,-3.6533,-3.6617,-3.6629,-3.6711,-3.6737,-3.6778,-3.6835,-3.6831,-3.6884,-3.6902,-3.6959,-3.6972,-3.7055,-3.7071,-3.7081,-3.7083,-3.7079,-3.7078,-3.7099,-3.7091,-3.7088,-3.7087,-3.7087,-3.7086,0,-3.6484,-3.6506,-3.6599,-3.665,-3.6664,-3.6723,-3.6766,-3.6817,-3.6837,-3.691,-3.6927,-3.6959,-3.7025,-3.7046,-3.7127,-3.7135,-3.7231,-3.7228,-3.7214,-3.7213,-3.7267,-3.7261,-3.7443,-3.7466,-3.7323,-3.7325,-3.7326,0,-3.6561,-3.6618,-3.6675,-3.6713,-3.6741,-3.6803,-3.6842,-3.6858,-3.6898,-3.6959,-3.7002,-3.7068,-3.7121,-3.7228,-3.7258,-3.7319,-3.7316,-3.7375,-3.7325,-3.7319,-3.7313,-3.7308,-3.7313,-3.7384,-3.7385,-3.7386,-3.7388,0,-3.6695,-3.6703,-3.6759,-3.682,-3.6867,-3.6916,-3.6962,-3.6994,-3.7016,-3.7062,-3.713,-3.7172,-3.7254,-3.7319,-3.7381,-3.7409,-3.7402,-3.7404,-3.7419,-3.7415,-3.7404,-3.7408,-3.7237,-3.7399,-3.7398,-3.7397,-3.7396,-3.7396,-3.6787,-3.6837,-3.6884,-3.6947,-3.6984,-3.7028,-3.7077,-3.7104,-3.7161,-3.7228,-3.7235,-3.7308,-3.7355,-3.7438,-3.7469,-3.7526,-3.7509,-3.7532,-3.7538,-3.7543,-3.7545,-3.7397,-3.7538,-3.7538,-3.7538,-3.7538,-3.7537,0,-3.6918,-3.6948,-3.7006,-3.7071,-3.7121,-3.7111,-3.7162,-3.7204,-3.7268,-3.7313,-3.7366,-3.7444,-3.7507,-3.7542,-3.7605,-3.7644,-3.7642,-3.766,-3.7655,-3.7661,-3.7559,-3.7538,-3.766,-3.766,-3.766,-3.766,-3.766,-3.766,-3.6992,-3.7075,-3.7089,-3.719,-3.7219,-3.729,-3.732,-3.7361,-3.7396,-3.7483,-3.7535,-3.7558,-3.7599,-3.7665,-3.7722,-3.7731,-3.7753,-3.7773,-3.7779,-3.7682,-3.7669,-3.7657,-3.7637,-3.7778,-3.7778,-3.7876,-3.7877,-3.7878]},{"header":{"parameterUnit":"m.s-1","parameterCategory":1,"la1":30.2991,"la2":30.254,"lo1":-89.0895,"lo2":-89.0444,"dy":0.0017,"dx":0.0017,"nx":28,"ny":28,"refTime":"2024-04-06T21:00:00:Z","depth":0,"parameterNumber":3,"parameterNumberName":"V-component_of_WINDS"},"data":[0,0,0,0,0,0,0,0,0,0,0,0,0,0,0,0,0,0,0,0,0,0,0,0,0,0,0,0,0,0,0,0,0,0,0,0,0,0,0,0,0,0,0,0,0,0,0,0,0,0,0,0,0,0,0,0,0,0,3.3182,3.3182,0,3.319,3.319,3.3191,3.3107,3.3105,3.3103,3.3101,3.3107,3.3109,3.3112,0,0,0,0,0,0,0,0,0,0,0,0,0,3.3092,3.3094,3.3182,3.3182,3.3182,3.319,3.319,3.3191,3.3108,3.3105,3.3102,3.31,3.3106,3.3109,3.3112,0,0,0,0,0,0,0,0,0,0,0,0,0,3.3119,3.3095,3.3182,3.3142,3.3138,3.319,3.319,3.3191,3.3108,3.3105,3.3101,3.3098,3.3105,3.3109,3.3112,3.3202,0,0,3.3123,3.3124,0,0,0,0,0,0,0,0,3.3118,3.3122,3.3148,3.3145,3.3141,3.3144,3.3161,3.3194,3.3109,3.312,3.3101,3.3097,3.3122,3.3124,3.3133,3.3203,3.3203,3.3123,3.3125,3.3127,3.3128,0,0,0,0,0,0,0,3.3116,3.3121,3.3185,3.3148,3.3144,3.3123,3.3123,3.3167,3.314,3.3118,3.3112,3.3115,3.312,3.313,3.3133,3.3203,3.3123,3.3126,3.3128,3.313,3.3346,3.335,0,0,0,0,0,0,3.312,3.312,3.3185,3.3185,3.3121,3.3127,3.3127,3.3147,3.3139,3.3135,3.3118,3.3111,3.3126,3.3129,3.3133,3.3237,3.3127,3.313,3.3132,3.3343,3.3347,3.3351,0,0,0,0,0,0,3.3118,3.3126,3.3184,3.3151,3.3157,3.3132,3.3155,3.3149,3.3159,3.3139,3.3133,3.3133,3.3123,3.3128,3.3186,3.3236,3.3132,3.3135,3.3338,3.3344,3.3349,3.3446,0,0,0,0,0,0,3.3116,3.3126,3.316,3.3153,3.3159,3.3238,3.3158,3.3151,3.3165,3.3156,3.3152,3.3148,3.3121,3.3181,3.3189,3.3239,3.3137,3.3334,3.3341,3.3347,3.3438,3.3454,3.3468,0,0,0,0,0,3.3113,3.3187,3.3163,3.3171,3.3202,3.3241,3.3245,3.3213,3.317,3.3203,3.3191,3.3148,3.323,3.3188,3.3196,3.3247,3.333,3.3339,3.3347,3.3432,3.3451,3.3468,0,0,0,0,0,0,3.32,3.3185,3.3158,3.3232,3.3239,3.3227,3.3269,3.3235,3.3253,3.3244,3.3203,3.3203,3.3267,3.3263,3.3217,3.3334,3.3272,3.3283,3.3334,3.3352,3.3367,3.3365,3.314,0,0,0,0,0,3.3228,3.3262,3.3247,3.3314,3.3319,3.3294,3.331,3.3285,3.329,3.3292,3.3283,3.3289,3.3315,3.3334,3.3357,3.3438,3.3435,3.3478,3.3493,3.3505,3.3514,3.3555,3.3574,3.3378,3.3378,3.3378,0,0,3.3286,3.3282,3.3306,3.3331,3.3334,3.3369,3.3296,3.3337,3.3362,3.3297,3.3351,3.3346,3.335,3.3419,3.3449,3.3418,3.3567,3.3515,3.3525,3.3527,3.3566,3.3584,3.3601,3.3384,3.3383,3.3382,0,0,3.3409,3.341,3.3466,3.347,3.3474,3.3457,3.3471,3.3465,3.3459,3.3513,3.3465,3.3494,3.3542,3.3546,3.3555,3.3681,3.3642,3.369,3.3767,3.3808,3.3823,3.3836,3.388,3.3897,3.3699,3.37,3.37,0,3.348,3.3532,3.3498,3.3542,3.3554,3.3499,3.3554,3.3559,3.3571,3.3581,3.3546,3.3604,3.3603,3.3672,3.3703,3.3712,3.3726,3.3689,3.3824,3.3837,3.3849,3.389,3.3907,3.3705,3.3705,3.3704,3.3704,0,3.3618,3.3655,3.3699,3.3713,3.373,3.378,3.3753,3.3775,3.3749,3.3736,3.3791,3.3788,3.381,3.3825,3.38,3.3891,3.3871,3.3831,3.3768,3.3874,3.3912,3.3927,3.3713,3.3711,3.371,3.3708,0,0,3.3794,3.379,3.3807,3.3812,3.3814,3.3841,3.3888,3.391,3.3929,3.394,3.3977,3.402,3.3982,3.3992,3.3967,3.4004,3.4103,3.3958,3.3958,3.3984,3.4202,3.4231,3.425,3.4078,3.4081,3.4083,3.4201,0,3.3913,3.3993,3.3965,3.4046,3.4079,3.4028,3.4069,3.4074,3.4063,3.4089,3.4077,3.4107,3.4056,3.4062,3.4096,3.4084,3.4145,3.4075,3.4111,3.4113,3.411,3.427,3.4301,3.4412,3.4216,3.4218,3.422,0,3.4061,3.4079,3.4164,3.416,3.4173,3.4211,3.4228,3.4255,3.4259,3.4249,3.4261,3.4228,3.4273,3.4212,3.4273,3.4226,3.4239,3.4236,3.4239,3.424,3.4171,3.4273,3.4447,3.4463,3.4243,3.4242,3.424,0,3.418,3.4225,3.4281,3.4288,3.4285,3.4312,3.4312,3.4314,3.4329,3.4345,3.4354,3.4375,3.4386,3.4403,3.4377,3.4335,3.4442,3.4378,3.4433,3.4434,3.4456,3.4454,3.4633,3.4468,3.4468,3.4468,3.4467,0,3.4314,3.4368,3.4334,3.4369,3.4428,3.4395,3.4453,3.4448,3.445,3.4482,3.4439,3.447,3.4434,3.4462,3.4442,3.4495,3.45,3.4492,3.4486,3.4495,3.4496,3.4502,3.4493,3.4472,3.4471,3.447,3.4469,0,3.4455,3.4435,3.4493,3.4486,3.4486,3.4529,3.4523,3.4554,3.4541,3.4582,3.459,3.4569,3.46,3.4576,3.4605,3.4591,3.4661,3.4645,3.466,3.4655,3.471,3.4705,3.4897,3.492,3.4742,3.4744,3.4745,0,3.4541,3.4581,3.4579,3.4598,3.4601,3.4632,3.4648,3.4617,3.4635,3.4644,3.4674,3.4701,3.4721,3.4771,3.4758,3.4781,3.4763,3.4829,3.4766,3.4774,3.4762,3.4759,3.4763,3.4841,3.4843,3.4845,3.4846,0,3.4695,3.4684,3.4708,3.473,3.475,3.4765,3.4776,3.4794,3.4763,3.4786,3.4816,3.4832,3.4862,3.4889,3.4907,3.4906,3.4871,3.4867,3.488,3.4889,3.4895,3.4891,3.4693,3.4862,3.486,3.4859,3.4858,3.4858,3.481,3.4843,3.4847,3.4876,3.4882,3.4894,3.4923,3.4914,3.494,3.4962,3.4943,3.498,3.4984,3.5005,3.5008,3.5036,3.5009,3.5029,3.5033,3.5038,3.5046,3.4893,3.504,3.5039,3.5039,3.5038,3.5038,0,3.4961,3.4961,3.4988,3.5006,3.5029,3.4996,3.5007,3.5028,3.5061,3.5068,3.5089,3.5124,3.515,3.514,3.5163,3.5187,3.5171,3.5194,3.5191,3.5191,3.507,3.5055,3.5206,3.5206,3.5206,3.5206,3.5206,3.5206,3.5042,3.5096,3.5085,3.5142,3.5142,3.5178,3.5187,3.5198,3.5203,3.5245,3.5267,3.526,3.526,3.5283,3.5305,3.5301,3.5311,3.5339,3.533,3.5216,3.5199,3.5183,3.5169,3.5342,3.5342,3.5448,3.5449,3.545]}]]